Weather History for CWWE - October, 2012

Change the Weather History Date:

Sunday, October 7, 2012

  Actual Average Record
Temperature  
Mean Temperature 58 °F -  
Max Temperature 63 °F - - ()
Min Temperature 52 °F - - ()
Degree Days  
Heating Degree Days 8    
Growing Degree Days 8 (Base 50)    
Moisture  
Dew Point 53 °F    
Average Humidity 83    
Maximum Humidity 96    
Minimum Humidity 53    
Precipitation  
Precipitation 0.04 in - - ()
Sea Level Pressure  
Sea Level Pressure 29.96 in    
Wind  
Wind Speed 10 mph ()    
Max Wind Speed 16 mph    
Max Gust Speed -    
T = Trace of Precipitation, MM = Missing Value Source: Averaged Metar Reports

Daily Weather History Graph

Daily Weather History Graph

Search for Another Location

Airport or City:

Trip Planner

Search our weather history database for the weather conditions in past years. The results will help you decide how hot, cold, wet, or windy it might be!

Date:

Astronomy

Oct. 07, 2012 Rise Set
Actual Time 7:23 AM ADT 6:47 PM ADT
Civil Twilight 6:55 AM ADT 7:16 PM ADT
Nautical Twilight 6:21 AM ADT 7:50 PM ADT
Astronomical Twilight 5:48 AM ADT 8:23 PM ADT
Moon 11:47 PM ADT (10/7) 2:06 PM ADT (10/7)
Length of Visible Light 12h 21m
Length of Day
11h 23m
Waning Gibbous, 57% of the Moon is Illuminated
Oct 7
Waning Gibbous
Oct 8
Last Quarter
Oct 15
New
Oct 22
First Quarter
Oct 29
Full

Hourly Weather History & Observations

Time (ADT) Temp. Dew Point Humidity Pressure Visibility Wind Dir Wind Speed Gust Speed Precip Events Conditions
12:00 AM 59 °F 58 °F 94% 29.85 in - SSW 16.1 mph - -  
12:00 AM 59.2 °F 57.7 °F 95% 29.85 in - SSW 16.1 mph - N/A   Unknown
1:00 AM 58.5 °F 57.4 °F 96% 29.85 in - SW 13.8 mph - N/A   Unknown
2:00 AM 59.2 °F 57.9 °F 96% 29.85 in - SW 15.0 mph - N/A   Unknown
3:00 AM 59 °F 57 °F 92% 29.83 in - SW 13.8 mph - -  
3:00 AM 58.6 °F 57.4 °F 96% 29.83 in - SW 13.8 mph - N/A   Unknown
4:00 AM 59.5 °F 58.5 °F 96% 29.83 in - SW 16.1 mph - N/A   Unknown
5:00 AM 59.5 °F 57.9 °F 94% 29.84 in - SW 13.8 mph - N/A   Unknown
6:00 AM 55 °F 54 °F 95% 29.88 in - NW 8.1 mph - -  
6:00 AM 55.0 °F 54.0 °F 96% 29.88 in - NW 8.1 mph - 0.04 in   Unknown
7:00 AM 54.0 °F 52.7 °F 95% 29.91 in - NW 10.4 mph - N/A   Unknown
8:00 AM 52.9 °F 51.4 °F 95% 29.94 in - NW 8.1 mph - N/A   Unknown
9:00 AM 54 °F 50 °F 83% 29.98 in - NW 9.2 mph - -  
9:00 AM 53.8 °F 50.4 °F 88% 29.98 in - NW 9.2 mph - N/A   Unknown
11:00 AM 59.0 °F 48.9 °F 69% 30.01 in - NW 9.2 mph - N/A   Unknown
12:00 PM 62 °F 49 °F 53% 30.02 in - NW 5.8 mph - -  
12:00 PM 61.9 °F 49.3 °F 63% 30.02 in - NW 5.8 mph - N/A   Unknown
1:00 PM 61.9 °F 51.8 °F 69% 30.02 in - SSE 5.8 mph - N/A   Unknown
2:00 PM 61.7 °F 51.3 °F 69% 30.01 in - SSE 6.9 mph - N/A   Unknown
3:00 PM 62 °F 51 °F 58% 30.00 in - SSE 8.1 mph - -  
3:00 PM 61.5 °F 51.1 °F 69% 30.00 in - SSE 8.1 mph - N/A   Unknown
4:00 PM 60.6 °F 52.2 °F 74% 30.01 in - South 8.1 mph - N/A   Unknown
5:00 PM 59.4 °F 51.8 °F 76% 30.01 in - South 10.4 mph - N/A   Unknown
6:00 PM 58 °F 52 °F 75% 30.04 in - SSW 8.1 mph - -  
6:00 PM 57.6 °F 52.2 °F 82% 30.04 in - SSW 8.1 mph - N/A   Unknown
7:00 PM 55.0 °F 52.0 °F 89% 30.06 in - SSW 4.6 mph - N/A   Unknown
8:00 PM 53.6 °F 50.0 °F 88% 30.07 in - SW 4.6 mph - N/A   Unknown
9:00 PM 53 °F 50 °F 85% 30.07 in - NW 8.1 mph - -  
9:00 PM 53.2 °F 49.8 °F 88% 30.07 in - NW 8.1 mph - N/A   Unknown
10:00 PM 52.7 °F 47.5 °F 82% 30.06 in - NNW 6.9 mph - N/A   Unknown
11:00 PM 52.9 °F 47.8 °F 83% 30.05 in - NNW 6.9 mph - N/A   Unknown